Regional Weather Roundup
Issued by NWS

Home | Current Version | Previous Version | Text Only | Print | Product List | Glossary On
Versions: 1 2 3 4 5 6 7 8 9 10 11 12 13 14 15 16 17 18 19 20 21 22 23 24 25 26 27 28 29 30 31 32 33 34 35 36 37 38 39 40 41 42 43 44 45 46 47 48 49 50
600
ASUS43 KTOP 260159
RWRKS

WEATHER ROUNDUP FOR KANSAS
NATIONAL WEATHER SERVICE GOODLAND KS
800 PM CST SAT FEB 25 2017

NOTE:  "FAIR" INDICATES FEW OR NO CLOUDS BELOW 12,000 FEET WITH NO
SIGNIFICANT WEATHER AND/OR OBSTRUCTIONS TO VISIBILITY.

KSZ001>006-013>018-027>032-041>047-260300-
NORTHWEST KANSAS

CITY           SKY/WX    TMP DP  RH WIND       PRES   REMARKS
GOODLAND       CLEAR     20   6  55 E8        29.83F
HAYS           CLOUDY    39  13  34 W6        29.92S
HILL CITY      CLEAR     27  14  58 N6        29.91S
RUSSELL        MOCLDY    34  15  46 S12       29.90F WCI  25
$$

KSZ061>065-074>080-084>089-260300-
SOUTHWEST KANSAS

CITY           SKY/WX    TMP DP  RH WIND       PRES   REMARKS
DODGE CITY     CLEAR     35  14  42 SE15      29.88F WCI  25
ELKHART          N/A     34   4  28 SE8         N/A
GARDEN CITY    CLEAR     32   8  36 E7        29.84F
LIBERAL        CLOUDY    43  18  36 SE17      29.83F
$$

KSZ066>073-081>083-090>101-260300-
SOUTHEAST KANSAS

CITY           SKY/WX    TMP DP  RH WIND       PRES   REMARKS
CHANUTE        CLEAR     32  13  45 S5        30.06F
COFFEYVILLE    CLEAR     37  15  40 S6        30.08F
HUTCHINSON     CLEAR     33  16  49 SE12      29.99S WCI  24
MEDICINE LODGE   N/A     37  15  40 SE10      29.97F WCI  30
NEWTON         CLEAR     33  17  51 S10       30.01F WCI  25
PARSONS        CLEAR     31  14  49 SE3       30.08F
WICHITA INTL   CLEAR     33  19  56 S9        30.02F
WICHITA JABRA  CLEAR     32  18  56 S7        30.02F
WINFIELD       CLEAR     34  21  59 S6        30.06F
$$

KSZ007>012-019>026-033>040-048>060-102>105-260300-
NORTHEAST KANSAS

CITY           SKY/WX    TMP DP  RH WIND       PRES   REMARKS
CONCORDIA      CLOUDY    37  16  42 S13       29.92F WCI  29
EMPORIA        PTCLDY    32  14  47 SW9       30.03F
LAWRENCE       CLOUDY    29  13  51 SE6       30.04F
MANHATTAN      CLEAR     39  15  37 S10       29.98F WCI  32
OLATHE IND     CLEAR     30  11  45 S6        30.05F
OLATHE EXE     CLEAR     32  12  43 S5        30.04F
SALINA         CLEAR     37  13  37 S13       29.96F WCI  29
TOPEKA BILLARD CLOUDY    38  14  37 S5        30.02F
TOPEKA FORBES  CLOUDY    37  13  37 S7        30.02F
$$




USA.gov is the U.S. government's official web portal to all federal, state and local government web resources and services.